Location: �bnet
(46.9957°N, 8.4908°E)
Time: 23:53:09
(UTC+00:00)

Cosmos 1666 - Pass Details

Date: 11 May 2021
Orbit: 495 x 519 km, 82.5° (Epoch: 18 June)

Event Time Altitude Azimuth Distance (km) Brightness Sun altitude
Rises 20:53:27 0° 349° (N) 2,601 7.4 -16.8°
Reaches altitude 10° 20:55:34 10° 349° (N) 1,710 6.3 -17.0°
Maximum altitude 20:59:19 81° 263° (W) 509 2.6 -17.4°
Enters shadow 21:00:39 38° 180° (S) 775 3.1 -17.5°
